PA2JOK Weather Reports


time (UTC)temp
C
wind
direction
speed
KPH
gust
KPH
rain 1hr
cm
rain 24hr
cm
rain mn
cm
humidity
%
barometer
mb
20260503034802 13 203 3.2 6.4 0.00 0.61 0.03 90 1009.5
20260503033302 13 175 3.2 6.4 0.00 0.61 0.03 90 1009.5
20260503031802 13 164 0.0 3.2 0.00 0.61 0.03 90 1010.0
20260503030302 13 231 0.0 3.2 0.00 0.61 0.03 90 1010.2
20260503024802 13 211 0.0 3.2 0.00 0.61 0.03 90 1010.3
20260503023303 13 208 0.0 0.0 0.00 0.61 0.03 90 1010.3
20260503021802 13 208 0.0 0.0 0.00 0.61 0.03 90 1010.5
20260503020302 13 208 0.0 6.4 0.00 0.61 0.03 90 1010.2
20260503014802 13 199 0.0 9.7 0.00 0.61 0.03 90 1010.3
20260503013303 13 135 0.0 12.9 0.00 0.61 0.03 90 1010.3
20260503011804 13 165 3.2 12.9 0.00 0.61 0.03 90 1010.3
20260503010302 13 176 3.2 12.9 0.00 0.61 0.03 90 1010.4
20260503004802 13 187 3.2 6.4 0.03 0.61 0.03 90 1010.4
20260503003303 13 145 0.0 9.7 0.03 0.61 0.03 90 1010.4
20260503001803 13 143 3.2 12.9 0.03 0.61 0.03 90 1010.4
20260503000304 13 86 6.4 6.4 0.03 0.61 0.03 89 1010.6
20260502234802 13 107 3.2 6.4 0.00 0.61 0.61 89 1011.1
20260502233302 13 111 0.0 9.7 0.00 0.61 0.61 89 1011.1
20260502231803 13 189 6.4 9.7 0.00 0.61 0.61 89 1011.2
20260502230303 13 128 3.2 9.7 0.00 0.61 0.61 88 1011.3
20260502224803 13 69 3.2 12.9 0.05 0.61 0.61 87 1011.6
20260502223302 13 118 0.0 16.1 0.15 0.61 0.61 88 1011.5
20260502221803 13 105 9.7 12.9 0.25 0.61 0.61 87 1011.6
20260502220303 13 99 3.2 12.9 0.61 0.61 0.61 86 1011.6
20260502214803 13 93 9.7 12.9 0.56 0.56 0.56 84 1012.0
20260502213302 15 290 0.0 9.7 0.46 0.46 0.46 81 1012.8
20260502211802 15 302 6.4 16.1 0.33 0.33 0.33 78 1013.2
20260502210303 16 186 3.2 22.5 0.00 0.00 0.00 65 1013.2
20260502204802 17 115 12.9 16.1 0.00 0.00 0.00 59 1011.8
20260502203302 17 93 3.2 16.1 0.00 0.00 0.00 58 1011.8
20260502201803 17 68 9.7 12.9 0.00 0.00 0.00 57 1011.7
20260502200303 17 72 3.2 9.7 0.00 0.00 0.00 55 1012.0
20260502194802 17 20 6.4 16.1 0.00 0.00 0.00 55 1012.1
20260502193303 17 49 6.4 9.7 0.00 0.00 0.00 55 1012.3
20260502191802 17 17 0.0 9.7 0.00 0.00 0.00 54 1012.3
20260502190302 18 23 0.0 12.9 0.00 0.00 0.00 54 1012.3
20260502184803 18 20 3.2 9.7 0.00 0.00 0.00 54 1012.3
20260502183303 19 4 0.0 9.7 0.00 0.00 0.00 54 1012.4
20260502181802 20 24 6.4 9.7 0.00 0.00 0.00 52 1012.5
20260502180302 20 33 0.0 16.1 0.00 0.00 0.00 51 1012.4
20260502170302 21 355 3.2 12.9 0.00 0.00 0.00 47 1012.7
20260502163303 21 177 0.0 12.9 0.00 0.00 0.00 49 1013.2
20260502161803 21 207 0.0 9.7 0.00 0.00 0.00 49 1013.3
20260502160302 21 56 0.0 6.4 0.00 0.00 0.00 50 1013.3
20260502151802 22 245 0.0 9.7 0.00 0.00 0.00 49 1013.9
20260502150303 21 180 0.0 9.7 0.00 0.00 0.00 51 1014.1
20260502130302 22 56 0.0 9.7 0.00 0.00 0.00 53 1015.4
20260502123303 21 271 0.0 9.7 0.00 0.00 0.00 54 1015.6
20260502121802 21 2 3.2 9.7 0.00 0.00 0.00 56 1015.9
20260502120303 21 187 3.2 12.9 0.00 0.00 0.00 55 1016.0
20260502114803 21 101 0.0 12.9 0.00 0.00 0.00 55 1016.0
20260502113303 21 158 0.0 9.7 0.00 0.00 0.00 54 1016.2
20260502111802 21 154 0.0 6.4 0.00 0.00 0.00 54 1016.2
20260502110303 21 247 0.0 9.7 0.00 0.00 0.00 54 1016.4
20260502104803 21 144 0.0 9.7 0.00 0.00 0.00 55 1016.6
20260502103302 21 154 0.0 9.7 0.00 0.00 0.00 54 1016.5
20260502101802 21 293 0.0 9.7 0.00 0.00 0.00 54 1016.6
20260502100302 21 203 0.0 9.7 0.00 0.00 0.00 55 1016.7
20260502090303 18 193 0.0 6.4 0.00 0.00 0.00 59 1016.8
20260502070303 13 325 0.0 3.2 0.00 0.00 0.00 58 1016.5
20260502064803 13 260 0.0 3.2 0.00 0.00 0.00 56 1016.4
20260502063302 12 272 0.0 6.4 0.00 0.00 0.00 54 1016.7
20260502061802 12 261 0.0 9.7 0.00 0.00 0.00 53 1016.7
20260502060303 12 242 0.0 6.4 0.00 0.00 0.00 52 1016.7
20260502054803 12 254 0.0 6.4 0.00 0.00 0.00 51 1016.6
20260502053302 12 260 0.0 3.2 0.00 0.00 0.00 50 1016.6
20260502051803 12 260 0.0 6.4 0.00 0.00 0.00 49 1016.6
20260502050303 13 252 0.0 9.7 0.00 0.00 0.00 48 1016.5
20260502044803 12 189 0.0 9.7 0.00 0.00 0.00 47 1016.3
20260502043302 12 195 6.4 6.4 0.00 0.00 0.00 49 1016.3
20260502041802 12 194 0.0 6.4 0.00 0.00 0.00 49 1016.3
20260502040302 12 193 3.2 9.7 0.00 0.00 0.00 49 1016.4